STRIX-ALPHA (47253 NORAD) Tracking and Keplerian Element Data
This shows tracking and keplerian element data for the satellite.
Feedback or suggestion? Click here.
Element | Value |
Catalog | 47253 |
Name | STRIX-ALPHA |
Epoch Orbit | 1151 |
Epoch Day | 60.21253894 |
Epoch Year | 2021 |
RAAN | 316.1985 |
Inclination | 97.3714 |
Eccentricity | 0.001533 |
Argument of Perigee | 37.2153 |
Mean Anonmoly | 118.1 |
Mean Motion | 15.20952736 |
Decay Rate | 2.686E-05 |
L1 | 1 47253U 20098A 21060.21253894 .00002686 00000-0 12404-3 0 9999 |
L2 | 2 47253 97.3714 316.1985 0015330 37.2153 118.1000 15.20952736 11519 |
Live tracking and technical data element details for STRIX-ALPHA (NORAD 47253). STRIX-ALPHA can be tracked NOW for your location showing map with azimuth and elevation plus other details from your city location.
Track the satellite on the map from your city or location and see movement details for azimuth, elevation, latitude, longitude, range, height, and movement on the map or in text.
IsCatalogInMostPopularTable: catalog: 47253, numindb: 21
Update: records affected: 1
GetName: 47253 STRIX-ALPHA
Hit Count: updated at: Mon, 01 Mar 2021 22:14:28 GMT